Home   Weather   Zwolle   Past weeks

Flag for Netherlands Past Weather in Zwolle, Netherlands — Yesterday and Last 2 Weeks

Now
37 °F

Passing clouds.


Feels Like: 31 °F
Forecast: 25 / 32 °F
Wind: 8 mph from East

Location: Amsterdam Schiphol Airport

Current Time: Jan 16, 2017 at 2:12:07 pm

Latest Report: Jan 16, 2017 at 1:25 pm


Visibility: N/A

Pressure: 30.36 "Hg

Humidity: 70%

Dew Point: 28 °F

Location of ZwolleLocation

Past Weather in Zwolle — Graph

°F

Zwolle Temperature Yesterday

Maximum temperature yesterday: 39 °F (at 2:55 pm)
Minimum temperature yesterday: 27 °F (at 7:25 am)
Average temperature yesterday: 34 °F

High & Low Weather Summary for the Past Weeks

 TemperatureHumidityPressure
High50 °F (Jan 11, 11:55 am)100% (Jan 1, 12:25 pm)30.74 "Hg (Jan 1, 12:25 pm)
Low21 °F (Jan 6, 8:25 am)56% (Jan 5, 2:25 pm)29.09 "Hg (Jan 12, 11:25 pm)
Average38 °F87%30.08 "Hg
* Reported Jan 1 12:25 pm — Jan 16 12:55 pm, Zwolle, Weather by CustomWeather, © 2017

Note: Actual official high and low records may vary slightly from our data, if they occured in-between our weather recording intervals... More about our weather records

Advertising

Zwolle Weather History for the Previous 24 Hours

Scroll right to see more
 ConditionsComfort  
Time TempWeatherWind HumidityBarometerVisibility
12:55 pm
Mon, Jan 16
37 °FPassing clouds.8 mph75%30.36 "HgN/A
12:25 pm37 °FPassing clouds.8 mph75%30.36 "HgN/A
11:55 am37 °FPassing clouds.6 mph87%30.36 "HgN/A
11:25 am36 °FPassing clouds.6 mph87%30.33 "HgN/A
10:55 am34 °FScattered clouds.9 mph93%30.33 "HgN/A
10:25 am34 °FPassing clouds.5 mph93%30.33 "HgN/A
9:55 am32 °FSunny.2 mph93%30.33 "Hg10 mi
9:25 am32 °FSunny.3 mph93%30.33 "Hg10 mi
8:55 am30 °FSunny.3 mph93%30.30 "Hg10 mi
8:25 am32 °FClear.3 mph93%30.30 "Hg10 mi
7:55 am32 °FClear.5 mph93%30.30 "Hg10 mi
7:25 am32 °FClear.5 mph93%30.27 "Hg10 mi
6:55 am30 °FPassing clouds.3 mph93%30.27 "HgN/A
6:25 am32 °FClear.6 mph93%30.27 "Hg10 mi
5:55 am30 °FClear.5 mph100%30.27 "Hg10 mi
5:25 am30 °FPassing clouds.3 mph100%30.27 "HgN/A
4:55 am30 °FClear.1 mph93%30.24 "Hg10 mi
4:25 am28 °FClear.1 mph100%30.24 "Hg10 mi
3:55 am28 °FClear.3 mph100%30.24 "Hg5 mi
3:25 am28 °FClear.2 mph100%30.24 "Hg10 mi
2:55 am32 °FPassing clouds.1 mph93%30.24 "HgN/A
2:25 am32 °FPassing clouds.3 mph100%30.24 "HgN/A
1:55 am34 °FPassing clouds.3 mph93%30.24 "HgN/A
1:25 am34 °FPassing clouds.3 mph93%30.24 "HgN/A
12:55 am36 °FPassing clouds.3 mph93%30.24 "HgN/A
12:25 am36 °FLight rain. Passing clouds.5 mph93%30.24 "HgN/A
11:55 pm
Sun, Jan 15
36 °FLight rain. Passing clouds.3 mph93%30.21 "HgN/A
11:25 pm34 °FClear.2 mph100%30.21 "Hg10 mi
10:55 pm34 °FPassing clouds.2 mph100%30.21 "HgN/A
10:25 pm36 °FClear.3 mph93%30.21 "Hg10 mi
9:55 pm36 °FClear.6 mph93%30.21 "Hg10 mi
9:25 pm36 °FPassing clouds.3 mph93%30.21 "HgN/A
8:55 pm36 °FPassing clouds.2 mph93%30.18 "HgN/A
8:25 pm36 °FPassing clouds.5 mph93%30.18 "HgN/A
7:55 pm37 °FClear.6 mph93%30.18 "Hg10 mi
7:25 pm37 °FPassing clouds.6 mph93%30.18 "HgN/A
6:55 pm37 °FPassing clouds.7 mph93%30.18 "HgN/A
6:25 pm37 °FPassing clouds.7 mph93%30.15 "HgN/A
5:55 pm37 °FPassing clouds.7 mph87%30.15 "HgN/A
5:25 pm37 °FPassing clouds.6 mph93%30.15 "HgN/A
4:55 pm37 °FPassing clouds.2 mph87%30.15 "HgN/A
4:25 pm37 °FPassing clouds.1 mph93%30.15 "HgN/A
3:55 pm37 °FPassing clouds.5 mph93%30.12 "HgN/A
3:25 pm37 °FPassing clouds.2 mph87%30.12 "HgN/A
2:55 pm39 °FPassing clouds.5 mph81%30.12 "HgN/A
2:25 pm37 °FScattered clouds.3 mph87%30.12 "HgN/A
Weather by CustomWeather, © 2017

See weather overviewHow to use our weather pages